Wind_Speed
1 2 4 7 5 2 2 3 3 3 5 4 5 9 10 15 14 12 15 18 20 25 22 24 22 23 28 29 27 26 23 20 21 23 25 26 26 24 22 20 19 13 12 12
1 5 4 2 4 2 2 4 4 2 3 3 6 9 5 16 20 21 19 19 21 21 24 29 26 24 27 32 31 27 25 23 23 23 24 25 23 24 21 21 19 15 16 16
5 2 5 5 3 4 4 4 3 5 3 2 4 4 3 7 12 13 19 20 19 23 27 31 33 30 28 31 32 29 26 26 26 26 26 26 25 25 25 25 18 19 18 17
4 2 4 3 4 6 5 6 6 3 1 1 2 3 3 5 10 13 23 22 26 27 27 28 34 36 35 34 34 32 29 28 28 28 29 28 29 29 28 23 18 19 18 19
5 4 4 3 5 6 5 2 2 1 3 2 1 1 4 0 8 17 24 29 30 34 33 32 34 34 34 32 32 30 28 27 28 28 28 29 30 30 27 23 21 22 21 23
3 1 3 6 3 4 5 4 5 3 1 1 0 2 4 4 4 4 14 25 32 34 36 34 33 33 34 32 31 30 28 28 27 27 28 30 32 32 30 25 25 25 26 27
0 2 2 3 3 2 3 4 1 1 1 2 3 1 8 4 7 6 10 15 29 37 37 36 35 37 37 35 34 33 33 32 32 32 29 31 34 34 33 27 28 27 29 30
6 3 7 4 4 5 5 4 4 3 2 1 2 4 3 5 11 12 12 13 13 25 35 37 36 36 37 36 35 32 35 35 31 24 29 31 35 35 36 29 28 27 29 28
6 5 1 4 4 3 4 3 2 6 2 1 2 4 8 2 6 6 9 10 7 14 22 32 36 37 38 39 39 36 37 35 34 32 26 33 33 36 35 32 30 27 28 31
7 2 2 1 2 4 2 8 3 1 3 3 3 3 3 6 6 4 4 6 6 5 10 18 25 31 35 37 35 36 37 34 36 34 31 32 30 31 34 31 30 29 30 33
5 3 2 2 4 8 3 2 3 3 2 3 2 4 6 5 2 5 4 3 3 4 4 8 13 18 24 29 30 30 32 30 31 28 33 29 25 28 27 30 32 31 33 32
7 4 4 6 1 2 2 6 6 3 4 1 1 6 5 8 5 7 12 8 4 3 3 4 6 9 13 16 18 20 22 24 23 24 26 24 21 23 27 30 29 30 28 28
8 1 3 1 1 2 2 4 4 5 3 7 5 5 2 4 6 7 11 10 9 6 7 9 10 10 12 12 14 17 18 17 17 19 19 22 24 26 28 27 25 20 17 21
15 4 6 9 8 5 4 6 7 6 4 5 7 10 8 8 5 11 10 10 10 11 9 10 13 13 14 15 16 15 15 16 18 20 20 22 23 23 19 18 12 5 19 18
5 7 6 5 5 5 6 5 12 11 10 8 11 11 10 7 5 6 9 9 11 10 11 10 12 11 12 12 13 15 17 19 19 17 16 14 14 12 12 15 10 15 12 11
2 4 5 4 3 6 5 6 8 9 5 9 8 8 10 6 5 4 4 1 1 2 1 4 5 7 8 8 7 6 7 8 8 9 9 10 10 13 15 11 11 12 11 4
5 6 4 5 1 5 4 7 9 5 6 6 9 10 3 5 4 3 2 7 9 11 12 11 11 8 5 4 4 4 5 5 6 6 9 12 14 13 11 11 9 6 2 9
5 6 1 3 1 5 4 2 4 10 7 9 6 5 5 3 6 5 7 10 12 12 14 14 13 11 9 7 7 7 8 8 8 11 14 14 13 13 12 8 5 11 13 14
3 5 3 4 5 3 3 5 7 7 13 8 12 8 5 14 10 3 8 11 13 13 14 13 12 10 10 9 10 10 12 11 13 16 16 16 12 8 3 11 13 10 8 11
4 4 3 3 5 9 8 5 9 4 10 8 13 10 14 16 7 5 13 13 14 14 14 13 12 13 12 14 13 13 15 17 18 17 15 10 5 8 10 4 5 8 12 14
3 2 5 3 4 5 6 5 13 6 9 8 19 17 23 9 3 21 20 16 15 15 15 15 15 15 15 16 16 20 22 19 15 10 6 6 4 3 4 6 8 11 14 17
6 8 4 3 2 8 11 7 9 9 7 9 20 24 23 13 19 25 21 20 18 18 18 17 20 21 21 20 18 22 17 13 7 4 2 2 3 4 6 9 12 15 18 22
4 5 5 8 6 2 25 7 21 8 7 9 20 27 32 23 24 25 25 22 21 20 22 23 24 27 25 20 15 14 9 3 2 2 1 2 5 7 10 13 16 19 21 24
4 4 3 2 4 6 13 22 12 14 15 12 19 31 34 27 27 26 25 24 25 26 26 25 25 24 22 15 9 4 5 4 2 2 3 4 7 11 13 16 18 19 21 22
3 8 6 3 5 6 16 20 24 19 15 15 19 30 32 27 29 28 28 29 28 28 26 24 21 19 16 10 7 8 6 3 2 3 6 8 11 14 16 18 19 19 19 19
6 6 5 6 13 11 13 20 26 23 21 22 25 27 26 28 30 30 31 31 31 29 27 23 18 14 13 11 9 6 4 1 3 6 9 12 15 17 18 19 19 20 19 20
Wind_Direction
151 175 219 215 200 121 181 196 262 273 162 248 229 275 222 197 208 216 212 206 202 208 205 200 198 200 204 205 208 212 214 211 208 207 206 206 208 214 220 222 223 225 227 226
64 233 207 182 176 167 168 221 240 301 301 320 324 305 234 191 210 208 214 210 212 206 211 213 213 215 212 211 211 214 216 216 214 213 212 215 218 225 231 229 225 216 223 223
185 243 149 167 168 193 227 219 209 264 344 308 307 277 200 209 237 223 225 228 222 215 209 214 215 219 218 217 218 220 222 221 222 219 217 222 226 231 230 229 223 220 217 223
231 225 191 183 206 175 254 220 209 215 325 271 315 301 274 217 217 222 234 221 226 221 220 216 221 223 223 222 223 224 226 224 225 226 228 231 234 232 233 235 228 223 226 226
228 182 177 179 213 167 230 150 165 163 187 253 145 227 277 178 233 227 224 225 225 224 222 221 220 225 226 225 225 225 227 228 229 231 233 238 239 242 243 238 229 226 233 229
214 178 195 189 180 172 137 82 44 61 112 333 230 234 274 233 237 271 230 227 228 226 228 226 227 225 228 226 227 227 230 236 239 238 242 247 246 246 244 237 230 228 232 227
324 215 253 185 143 130 115 105 223 116 128 202 129 170 253 260 252 250 281 251 235 230 228 231 230 229 227 226 228 231 234 238 240 240 246 247 248 248 247 244 233 237 232 226
186 243 183 187 191 185 175 195 156 179 189 238 198 230 243 219 293 288 299 299 257 243 235 231 234 233 233 231 232 232 237 237 241 245 254 252 248 249 247 243 239 246 239 234
157 240 189 250 143 169 161 181 123 106 37 166 260 276 274 251 307 304 315 317 298 248 243 243 239 238 240 237 233 231 236 235 237 236 254 251 250 248 246 241 240 236 232 230
195 164 194 203 143 53 181 147 131 66 179 239 245 264 239 311 336 315 333 329 304 289 253 245 243 243 242 245 242 240 244 244 246 243 251 258 257 251 249 240 231 230 229 228
137 139 196 136 215 172 147 177 71 118 166 206 255 248 215 239 234 286 289 293 293 275 266 253 244 242 243 247 249 248 247 248 250 249 251 261 262 252 245 241 233 229 232 229
190 144 176 195 316 254 175 170 156 156 198 211 271 255 235 252 252 274 280 287 262 208 168 223 245 241 240 245 248 250 249 246 251 250 254 255 252 249 239 242 236 234 228 228
174 171 163 358 19 2 212 192 136 108 90 199 205 256 178 268 301 267 269 287 275 260 237 204 199 217 220 226 235 239 242 245 248 253 255 251 243 238 237 236 233 225 225 219
148 143 169 219 224 163 192 199 186 162 161 189 223 255 263 275 273 287 284 291 291 262 252 237 233 227 226 228 232 235 238 237 248 254 254 247 243 237 236 233 198 260 220 211
143 185 181 227 219 193 202 182 179 199 220 202 247 221 250 251 239 279 295 299 291 285 257 250 238 233 238 239 231 227 227 236 242 243 247 253 259 237 210 185 207 201 202 226
183 194 155 209 119 196 212 231 192 217 223 244 252 252 235 221 228 248 288 238 99 31 58 194 197 207 221 232 241 235 236 240 243 252 254 235 213 187 187 205 191 207 220 244
164 137 130 225 175 137 309 214 187 190 206 197 216 233 168 229 209 171 111 129 117 103 100 103 110 122 142 175 203 213 209 202 191 181 176 174 178 188 180 174 190 199 257 293
148 132 108 160 108 211 237 87 180 217 244 224 247 241 228 195 146 142 149 140 123 111 105 102 102 107 115 125 141 151 150 147 148 153 159 168 175 168 157 173 219 296 292 301
173 134 129 158 199 310 242 202 180 176 253 216 231 220 178 144 132 114 145 146 131 121 114 110 108 112 120 124 130 138 136 143 152 149 148 147 150 153 197 301 293 297 290 289
88 64 139 141 199 214 211 207 155 129 272 212 195 183 166 158 173 166 162 145 135 129 123 119 113 111 116 117 126 134 131 139 136 138 141 147 179 269 295 301 289 284 288 291
122 66 180 161 226 281 249 154 146 155 253 204 200 184 170 189 174 160 159 149 143 133 127 125 123 125 123 127 136 132 134 133 137 143 173 270 278 268 275 279 287 294 298 300
172 161 177 109 196 256 158 121 177 210 188 214 199 193 177 171 148 151 154 150 144 140 135 136 134 127 126 135 145 137 136 131 151 249 227 243 279 287 295 300 302 304 305 305
246 204 186 192 210 200 187 204 207 201 211 208 200 191 184 164 159 159 153 150 146 145 143 142 139 134 134 136 138 140 126 132 163 197 245 282 290 299 305 307 308 310 311 313
234 177 185 104 221 228 218 223 225 231 238 235 213 193 186 173 165 160 156 152 150 149 146 146 144 140 137 144 153 149 137 159 181 251 284 294 303 308 312 316 319 322 324 326
191 146 162 251 266 285 249 233 240 242 237 222 195 190 187 180 168 166 159 156 155 153 150 151 149 145 143 145 136 136 145 165 240 287 308 314 318 321 323 327 331 334 335 337
192 173 171 215 209 204 238 248 226 220 214 201 187 179 182 183 174 168 162 162 160 157 155 153 150 150 141 140 148 152 166 209 314 320 322 326 329 330 332 333 335 336 343 345
Height
1503 1504 1505 1501 1504 1503 1506 1507 1506 1501 1501 1501 1502 1500 1499 1501 1503 1505 1507 1508 1510 1512 1517 1521 1524 1527 1531 1533 1536 1538 1541 1544 1546 1549 1551 1554 1556 1560 1562 1564 1566 1567 1569 1570
1504 1503 1497 1499 1502 1502 1503 1507 1505 1501 1499 1501 1497 1495 1495 1497 1495 1499 1503 1505 1506 1510 1514 1516 1520 1523 1526 1529 1532 1535 1538 1541 1544 1547 1550 1552 1555 1557 1559 1560 1561 1564 1566 1569
1502 1497 1495 1497 1500 1502 1502 1505 1506 1505 1503 1502 1501 1495 1496 1497 1498 1499 1500 1502 1504 1505 1509 1512 1515 1517 1521 1524 1527 1531 1535 1538 1541 1544 1547 1549 1551 1554 1554 1555 1557 1560 1563 1565
1498 1495 1496 1498 1498 1499 1505 1497 1499 1503 1506 1505 1503 1505 1495 1493 1495 1496 1495 1499 1499 1501 1504 1508 1510 1512 1514 1518 1524 1528 1531 1534 1537 1540 1543 1544 1547 1548 1549 1552 1555 1557 1559 1560
1493 1493 1495 1497 1495 1495 1497 1496 1498 1500 1503 1505 1506 1504 1489 1494 1491 1486 1486 1488 1491 1495 1499 1501 1503 1508 1512 1516 1519 1524 1527 1530 1533 1536 1539 1542 1543 1545 1547 1549 1551 1553 1554 1557
1489 1490 1491 1488 1491 1491 1495 1498 1503 1506 1506 1509 1505 1503 1490 1486 1484 1481 1480 1481 1483 1486 1490 1494 1499 1504 1507 1512 1515 1519 1522 1525 1528 1531 1534 1537 1539 1542 1543 1544 1547 1548 1550 1552
1490 1489 1487 1486 1490 1492 1493 1501 1510 1514 1513 1510 1507 1510 1489 1481 1478 1477 1475 1474 1475 1478 1483 1487 1491 1495 1499 1504 1510 1514 1517 1520 1523 1526 1529 1532 1534 1536 1538 1541 1542 1543 1544 1545
1492 1496 1486 1483 1483 1487 1493 1495 1504 1514 1514 1507 1509 1503 1482 1478 1476 1474 1472 1470 1471 1473 1476 1479 1483 1488 1492 1498 1504 1509 1511 1514 1518 1521 1524 1526 1526 1530 1532 1536 1537 1538 1540 1541
1493 1491 1481 1482 1479 1483 1493 1495 1495 1512 1524 1518 1504 1493 1480 1478 1476 1474 1471 1467 1467 1468 1471 1475 1479 1482 1486 1491 1496 1501 1503 1509 1512 1515 1517 1518 1522 1524 1527 1529 1531 1533 1535 1536
1477 1488 1482 1482 1481 1484 1484 1489 1498 1504 1512 1514 1505 1502 1487 1476 1475 1475 1472 1469 1467 1467 1468 1470 1473 1477 1481 1485 1491 1495 1499 1503 1506 1509 1512 1513 1515 1519 1521 1523 1526 1527 1529 1531
1472 1477 1486 1482 1482 1480 1488 1490 1496 1495 1502 1502 1507 1494 1477 1472 1472 1472 1471 1470 1468 1467 1467 1468 1470 1473 1477 1481 1486 1490 1494 1498 1500 1504 1507 1509 1510 1512 1514 1517 1519 1522 1524 1526
1467 1475 1487 1478 1477 1476 1475 1479 1484 1494 1501 1508 1508 1491 1468 1468 1470 1471 1468 1467 1467 1466 1466 1467 1468 1470 1473 1477 1481 1485 1490 1493 1497 1500 1503 1505 1506 1507 1509 1512 1516 1517 1520 1522
1462 1475 1484 1481 1481 1479 1476 1478 1481 1489 1496 1497 1498 1485 1467 1467 1465 1465 1464 1464 1465 1465 1466 1466 1468 1470 1472 1474 1478 1481 1485 1490 1494 1496 1497 1499 1501 1503 1504 1508 1511 1514 1519 1520
1449 1466 1468 1474 1469 1471 1478 1474 1477 1476 1491 1484 1485 1472 1466 1462 1462 1460 1460 1460 1461 1461 1462 1464 1467 1468 1470 1472 1475 1479 1483 1487 1489 1491 1492 1494 1496 1498 1502 1505 1505 1516 1515 1519
1448 1459 1464 1462 1463 1465 1463 1464 1472 1474 1468 1476 1468 1474 1461 1459 1456 1458 1457 1456 1457 1457 1459 1460 1462 1465 1468 1471 1474 1476 1479 1482 1484 1486 1489 1492 1495 1497 1500 1505 1506 1511 1513 1514
1448 1456 1461 1464 1464 1463 1462 1459 1466 1468 1469 1470 1468 1468 1455 1453 1454 1455 1455 1454 1455 1455 1456 1456 1459 1462 1465 1469 1471 1473 1476 1478 1481 1484 1488 1491 1493 1497 1501 1504 1507 1508 1511 1513
1451 1456 1464 1464 1468 1466 1474 1461 1459 1460 1459 1457 1464 1451 1452 1452 1452 1455 1455 1454 1455 1455 1455 1457 1458 1460 1464 1467 1469 1472 1474 1477 1480 1483 1487 1491 1495 1498 1500 1503 1506 1506 1510 1511
1449 1453 1464 1468 1476 1476 1447 1449 1448 1452 1450 1450 1450 1450 1449 1449 1453 1454 1454 1454 1455 1456 1456 1457 1459 1461 1463 1466 1469 1472 1475 1477 1481 1484 1489 1492 1495 1497 1500 1502 1505 1507 1507 1508
1441 1451 1463 1466 1465 1457 1448 1447 1448 1448 1440 1440 1441 1443 1447 1449 1453 1456 1454 1454 1455 1456 1457 1459 1461 1463 1465 1468 1470 1473 1476 1480 1483 1486 1489 1493 1496 1499 1501 1503 1503 1502 1503 1503
1443 1444 1449 1468 1461 1457 1441 1434 1437 1440 1445 1432 1433 1437 1444 1448 1449 1449 1453 1454 1455 1456 1458 1459 1461 1463 1466 1469 1472 1475 1478 1482 1485 1489 1491 1495 1497 1498 1499 1499 1499 1500 1499 1498
1448 1451 1449 1461 1451 1443 1431 1431 1435 1448 1434 1426 1428 1432 1439 1440 1439 1441 1448 1453 1456 1457 1458 1460 1463 1465 1468 1471 1475 1476 1480 1484 1488 1491 1493 1494 1495 1495 1496 1496 1496 1496 1495 1493
1431 1441 1448 1457 1455 1442 1425 1433 1435 1421 1420 1422 1424 1428 1434 1437 1438 1442 1447 1450 1454 1456 1460 1463 1464 1467 1471 1475 1477 1479 1482 1485 1488 1490 1491 1492 1493 1494 1494 1494 1493 1492 1490 1488
1434 1422 1426 1429 1422 1414 1415 1412 1414 1416 1417 1418 1420 1425 1430 1434 1438 1442 1444 1449 1453 1456 1459 1463 1465 1468 1473 1477 1480 1482 1484 1486 1488 1489 1490 1491 1491 1491 1491 1490 1489 1488 1485 1482
1420 1418 1420 1421 1413 1411 1410 1410 1411 1412 1415 1415 1416 1419 1425 1429 1436 1441 1445 1449 1453 1456 1460 1464 1467 1470 1474 1478 1480 1482 1484 1486 1487 1488 1489 1489 1489 1488 1487 1486 1484 1481 1478 1475
1410 1412 1414 1414 1412 1411 1406 1405 1408 1411 1412 1413 1415 1418 1421 1426 1432 1436 1442 1448 1453 1457 1461 1465 1468 1471 1474 1477 1479 1481 1483 1485 1486 1487 1487 1486 1485 1484 1482 1480 1478 1476 1473 1470
1402 1402 1407 1405 1396 1396 1395 1396 1399 1402 1407 1410 1411 1416 1422 1424 1427 1433 1439 1445 1449 1455 1460 1464 1467 1470 1473 1476 1478 1481 1482 1483 1484 1484 1483 1482 1481 1479 1476 1474 1473 1470 1467 1465